ASIASAT 5

Last updated on Fri Dec 19 2025 00:02:49 GMT+0000 (Coordinated Universal Time)

1 35696U 09042A 25352.67482872 -.00000282 00000+0 00000+0 0 9996 2 35696 0.0316 281.9759 0001496 341.1689 167.8139 1.00268063 59896
UTC large
Height (km)
Speed (km/s)
/
Latitude / Longitude
Inclination (degrees)
Orbital Period (minutes)
Azimuth
Elevation
Range (km)
Doppler Factor

Next 0 passes for location: London (51.5072 / 0.1276)

Sorry there are no passes over London.